Location: Unspecified
(35.6961°N, 0.0000°E)
Time: 23:32:31
(UTC+00:00)

Explorer 11/Cluster Stage 4 - Pass Details

Date: 25 May 2019
Orbit: 467 x 1260 km, 28.8° (Epoch: 19 June)

Event Time Altitude Azimuth Distance (km) Brightness Sun altitude
Rises 06:51:56 0° 259° (W) 2,709 8.8 22.9°
Reaches altitude 10° 06:55:09 10° 234° (SW) 1,708 7.9 23.5°
Maximum altitude 06:57:14 14° 201° (SSW) 1,419 7.7 23.9°
Drops below altitude 10° 06:59:14 10° 167° (SSE) 1,622 8.3 24.3°
Sets 07:02:10 0° 141° (SE) 2,476 9.6 24.9°
